Change the Weather History Date:

Tuesday, December 16, 2014

  Actual Average Record
Temperature  
Mean Temperature 48 °F -  
Max Temperature 54 °F 59 °F 71 °F (1998)
Min Temperature 42 °F 35 °F 15 °F (1951)
Degree Days  
Heating Degree Days 17    
Moisture  
Dew Point 29 °F    
Average Humidity 49    
Maximum Humidity 71    
Minimum Humidity 33    
Precipitation  
Precipitation 0.01 in - - ()
Sea Level Pressure  
Sea Level Pressure 30.06 in    
Wind  
Wind Speed 3 mph (East)    
Max Wind Speed 6 mph    
Max Gust Speed -    
Visibility 10 miles    
Events Rain    
Averages and records for this station are not official NWS values.
T = Trace of Precipitation, MM = Missing Value Source: NWS Daily Summary

Daily Weather History Graph

Daily Weather History Graph

Search for Another Location

Airport or City:

Trip Planner

Search our weather history database for the weather conditions in past years. The results will help you decide how hot, cold, wet, or windy it might be!

Date:

Astronomy

Dec. 16, 2014 Rise Set
Actual Time 6:45 AM PST 4:27 PM PST
Civil Twilight 6:16 AM PST 4:56 PM PST
Nautical Twilight 5:44 AM PST 5:28 PM PST
Astronomical Twilight 5:13 AM PST 5:59 PM PST
Moon 1:12 AM PST (12/16) 12:52 PM PST (12/16)
Length of Visible Light 10h 39m
Length of Day
9h 42m
Waning Crescent, 29% of the Moon is Illuminated
Dec 16
Waning Crescent
Dec 21
New
Dec 28
First Quarter
Jan 4
Full
Jan 13
Last Quarter

Hourly Weather History & Observations

Time (PST) Temp. Windchill Dew Point Humidity Pressure Visibility Wind Dir Wind Speed Gust Speed Precip Events Conditions
12:53 AM 44.1 °F 41.5 °F 28.9 °F 55% 30.08 in 10.0 mi WNW 4.6 mph - N/A   Scattered Clouds
1:53 AM 45.0 °F 41.8 °F 28.9 °F 53% 30.09 in 10.0 mi West 5.8 mph - N/A   Overcast
2:53 AM 43.0 °F 40.3 °F 30.0 °F 60% 30.09 in 10.0 mi North 4.6 mph - N/A   Clear
3:53 AM 44.1 °F 40.8 °F 26.1 °F 49% 30.07 in 10.0 mi NNE 5.8 mph - N/A   Mostly Cloudy
4:53 AM 44.1 °F 42.5 °F 27.0 °F 51% 30.07 in 10.0 mi South 3.5 mph - N/A   Overcast
5:53 AM 43.0 °F - 28.9 °F 58% 30.08 in 10.0 mi Calm Calm - N/A   Overcast
6:53 AM 42.1 °F - 28.9 °F 60% 30.09 in 10.0 mi Calm Calm - N/A   Partly Cloudy
7:53 AM 44.1 °F 40.8 °F 30.0 °F 58% 30.10 in 10.0 mi North 5.8 mph - N/A   Overcast
8:53 AM 46.0 °F 44.8 °F 28.9 °F 51% 30.11 in 10.0 mi East 3.5 mph - N/A   Overcast
9:53 AM 48.0 °F - 30.0 °F 50% 30.12 in 10.0 mi Calm Calm - N/A   Mostly Cloudy
10:53 AM 51.1 °F - 27.0 °F 39% 30.10 in 10.0 mi SE 4.6 mph - N/A   Overcast
11:53 AM 53.1 °F - 26.1 °F 35% 30.06 in 10.0 mi SE 5.8 mph - N/A   Clear
12:53 PM 53.1 °F - 26.1 °F 35% 30.04 in 10.0 mi SE 5.8 mph - N/A   Clear
1:53 PM 54.0 °F - 25.0 °F 33% 30.02 in 10.0 mi Calm Calm - N/A   Clear
2:53 PM 54.0 °F - 25.0 °F 33% 30.02 in 10.0 mi Calm Calm - N/A   Clear
3:53 PM 54.0 °F - 27.0 °F 35% 30.02 in 10.0 mi East 5.8 mph - N/A   Clear
4:53 PM 51.8 °F - 28.4 °F 41% 29.97 in 10.0 mi East 4.6 mph - N/A   Partly Cloudy
5:53 PM 52.0 °F - 30.0 °F 43% 30.04 in 10.0 mi SSE 3.5 mph - N/A   Overcast
6:53 PM 52.0 °F - 30.0 °F 43% 30.05 in 10.0 mi Calm Calm - 0.00 in Rain Light Rain
7:53 PM 50.0 °F - 34.0 °F 54% 30.04 in 10.0 mi East 4.6 mph - 0.00 in   Overcast
8:53 PM 50.0 °F - 32.0 °F 50% 30.04 in 10.0 mi Calm Calm - N/A   Overcast
9:53 PM 50.0 °F - 32.0 °F 50% 30.05 in 10.0 mi Calm Calm - 0.00 in Rain Light Rain
10:53 PM 48.9 °F - 37.0 °F 64% 30.05 in 10.0 mi Calm Calm - 0.00 in   Overcast
11:53 PM 48.0 °F - 39.0 °F 71% 30.04 in 10.0 mi Calm Calm - 0.01 in   Overcast